CZ-6A DEB

Satellite information

Favourite Embed

Satellite Type and Status

DEBRISIN ORBIT

Key statistics

Satellite CZ-6A DEB at a glance.

Uptime

1032

Days in orbit

Revolutions

≈ 14.7

Per day

Orbit

SSO

Sun Synchronous Orbit

Inclination

98.5

Latest

Satellite identification and parameters

Extended collection of information and parameters for CZ-6A DEB.

Object identification

Identified? True

Debris? True

Object name: CZ-6A DEB

International designator: 2022-151RT

Object number (NORAD): 54930

Object ID (CCSDS): 54930

Country: PEOPLES REPUBLIC OF CHINA (PRC)

Current information (Y/N): Y

RCS size: SMALL

Orbital parameters

Period: 98.191 minutes

Inclination: 98.457 deg

SMA: 7050.283 km

Apoapsis: 744.717 km

Periapsis: 599.578 km

RAAN: 282.9331 deg

Eccentricy: 0.01029312

Argument of periapsis: 25.1066 deg

Mean anomaly: 335.5091 deg

Mean motion: 14.6653675 rev/day

Mean motion (dot): 0.00016224 rev/day2

B* drag term: 0.0027069654 1/REarth

Two-line elements (TLE)

Creation date: Sept. 7, 2025, 9:49 a.m.

Reference frame: TEME

Reference center: EARTH

Epoch: Sept. 7, 2025, 12:43 a.m. UTC

TLE line 0: 0 CZ-6A DEB

TLE line 1: 1 54930U 22151RT 25250.03037311 .00016224 00000-0 27070-2 0 9997

TLE line 2: 2 54930 98.4570 282.9331 0102931 25.1066 335.5091 14.66536750149036

Live tracking on map

Real-time ground track for satellite CZ-6A DEB.

In-orbit conjunctions

A list of the most updated potential collisions computed for object CZ-6A DEB.

Target Orbit TCA Probability of collision Miss distance Type
IRIDIUM 29 LEO 2025-01-09 08:44:39 0.001028356 168.0 (m) PAYLOAD
COSMOS 2251 DEB LEO 2024-11-17 03:13:03 0.0001886486 221.0 (m) DEBRIS
FENGYUN 1C DEB SSO 2024-11-15 11:09:51 0.0001774546 183.0 (m) DEBRIS

Associated space launch

Chinese satellite reported for atmospheric/ocean/environmental/spatial parameter research purposes, details TBD.

CZ-6A DEB was lifted into orbit during the mission ‘Long March 6A | Yunhai 3’, on board a Long March 6A space rocket.

The launch took place on Nov. 11, 2022, 10:52 p.m. from Launch Complex 9A.

For more information about the launch, click the button.

Launch to space Long March 6A | Yunhai 3
Long March 6A | Yunhai 3

Agency: N/A

Status: Launch Successful

Launch date: Nov. 11, 2022, 10:52 p.m. UTC

Rocket: Long March 6A

Launch pad: Launch Complex 9A

Location: Taiyuan Satellite Launch Center, People's Republic of China

...

Latest news about this satellite

There are no fresh news available about this satellite. Check back as we update our databases every day.


Newsletter sign-up

Weekly statistics, charts and insights to help you stay on top of the space industry.